Stagione 2025 · Round 16

Italian Grand Prix

2025-09-07 · Autodromo Nazionale di Monza · Italy · Italian Grand Prix · 53Lap · 306.720km
Red Bull 1:13:24.325
McLaren +19.207
Vittoria di squadra 33pt P2 · P3 2-3
McLaren +21.351
Giro veloce
1:20.901 · L53
Ritiro
1
Fernando Alonso L24
Meteo
27°/43°
media aria/pista · asciutto · umidità 43%
Safety car
0
Impieghi SC/VSC
Uso gomme Direzione gara
Storylines · This Grand Prix & circuit
Più vittorie in questo GP
Lewis Hamilton attivo 5 vittorie
Michael Schumacher 5 vittorie
Nelson Piquet 4 vittorie
Conversione pole-vittoria 26/75 34.7%
Most DNFs · all-time P2
Arrivo più ravvicinato · all-time P1
Circuito Info
53Lap 306.720km 76 gare held (1950–) Record del giro 1:20.901 · Lando Norris (2025)
Record Watch · Active drivers ranked at this Grand Prix
P1 Lewis Hamilton 5 vittorie · GP #1
P4 Max Verstappen 3 vittorie · → Nelson Piquet -1
P11 Fernando Alonso 2 vittorie · → Sebastian Vettel -1
P1 Fernando Alonso 22 partenze · GP #1
P2 Lewis Hamilton 19 partenze · → Fernando Alonso -3
P24 Nico Hülkenberg 12 partenze · → Giancarlo Fisichella -1
Gara Trace · position by lap
partenza da fermo SG 1 5 9 13 17 21 25 29 33 37 41 45 49 53 FIN Verstappen · sosta ai box L37 Verstappen VER Verstappen VER Norris · sosta ai box L46 Norris NOR Norris NOR Piastri · sosta ai box L45 Piastri PIA Piastri PIA Leclerc · sosta ai box L33 Leclerc LEC Leclerc LEC Russell · sosta ai box L27 Russell RUS Russell RUS Hamilton · sosta ai box L38 Hamilton HAM Hamilton HAM Albon · sosta ai box L41 Albon ALB Albon ALB Bortoleto · sosta ai box L20 Bortoleto BOR Bortoleto BOR Antonelli · sosta ai box L28 Antonelli · +5s aggiunto a fine gara Antonelli ANT Antonelli ANT Hadjar · sosta ai box L32 Hadjar HAD Hadjar HAD Sainz · sosta ai box L30 Sainz SAI Sainz SAI Bearman · sosta ai box L18 Bearman · +10s aggiunto a fine gara Bearman BEA Bearman BEA Tsunoda · sosta ai box L19 Tsunoda TSU Tsunoda TSU Lawson · sosta ai box L9 Lawson LAW Lawson LAW Ocon · sosta ai box L51 · penalità scontata Ocon OCO Ocon OCO Gasly · sosta ai box L49 Gasly GAS Gasly GAS Colapinto · sosta ai box L33 Colapinto COL Colapinto COL Stroll · sosta ai box L49 Stroll STR Stroll STR Alonso · sosta ai box L20 Alonso · ritiro L24 Alonso ALO Alonso ALO Hülkenberg · fermo L0 · classificato P20 Hülkenberg HUL Hülkenberg HUL
sosta ai box penalità scontata ai box SG Griglia di partenza FIN classifica ufficiale penalità aggiunta a fine gara vettura ferma posizione a ogni giro (dal 1996)
PosPilotaTeamGrigliaGiroTempo / StatoPunti
1 1 Max Verstappen Red Bull 1 53 1:13:24.325 25
2 4 Lando Norris FL McLaren 2 53 +19.207 18
3 81 Oscar Piastri McLaren 3 53 +21.351 15
4 16 Charles Leclerc Ferrari 4 53 +25.624 12
5 63 George Russell Mercedes 5 53 +32.881 10
6 44 Lewis Hamilton Ferrari 10 53 +37.449 8
7 23 Alexander Albon Williams 14 53 +50.537 6
8 5 Gabriel Bortoleto Sauber 7 53 +58.484 4
9 12 Andrea Kimi Antonelli Mercedes 6 53 +59.762 2
10 6 Isack Hadjar RB F1 Team 19 53 +1:03.891 1
11 55 Carlos Sainz Williams 13 53 +1:04.469
12 87 Oliver Bearman Haas F1 Team 11 53 +1:19.288
13 22 Yuki Tsunoda Red Bull 9 53 +1:20.701
14 30 Liam Lawson RB F1 Team 18 53 +1:22.351
15 31 Esteban Ocon Haas F1 Team 15 52 +2.135
16 10 Pierre Gasly Alpine F1 Team 20 52 +5.837
17 43 Franco Colapinto Alpine F1 Team 17 52 +7.448
18 18 Lance Stroll Aston Martin 16 52 +9.301
R 14 Fernando Alonso Aston Martin 8 24 Retired
W 27 Nico Hülkenberg Sauber 12 0 Did not start
PosPilotaTeamQ1Q2Q3Distacco dalla pole
1 1 Max Verstappen Red Bull 1:19.455 1:19.140 1:18.792 POLE Q3
2 4 Lando Norris McLaren 1:19.517 1:19.293 1:18.869 +0.077 Q3
3 81 Oscar Piastri McLaren 1:19.711 1:19.286 1:18.982 +0.190 Q3
4 16 Charles Leclerc Ferrari 1:19.689 1:19.310 1:19.007 +0.215 Q3
5 44 Lewis Hamilton Ferrari 1:19.765 1:19.371 1:19.124 +0.332 Q3
6 63 George Russell Mercedes 1:19.414 1:19.287 1:19.157 +0.365 Q3
7 12 Andrea Kimi Antonelli Mercedes 1:19.747 1:19.245 1:19.200 +0.408 Q3
8 5 Gabriel Bortoleto Sauber 1:19.688 1:19.323 1:19.390 +0.531 Q2
9 14 Fernando Alonso Aston Martin 1:19.658 1:19.362 1:19.424 +0.570 Q2
10 22 Yuki Tsunoda Red Bull 1:19.619 1:19.433 1:19.519 +0.641 Q2
11 87 Oliver Bearman Haas F1 Team 1:19.688 1:19.446 +0.654 Q2
12 27 Nico Hülkenberg Sauber 1:19.777 1:19.498 +0.706 Q2
13 55 Carlos Sainz Williams 1:19.644 1:19.528 +0.736 Q2
14 23 Alexander Albon Williams 1:19.837 1:19.583 +0.791 Q2
15 31 Esteban Ocon Haas F1 Team 1:19.816 1:19.707 +0.915 Q2
16 6 Isack Hadjar RB F1 Team 1:19.917 +1.125 Q1
17 18 Lance Stroll Aston Martin 1:19.948 +1.156 Q1
18 43 Franco Colapinto Alpine F1 Team 1:19.992 +1.200 Q1
19 10 Pierre Gasly Alpine F1 Team 1:20.103 +1.311 Q1
20 30 Liam Lawson RB F1 Team 1:20.279 +1.487 Q1
Griglia di partenza
Ufficiale
5
63 George Russell ▲1
8
14 Fernando Alonso ▲1
9
22 Yuki Tsunoda ▲1
10
44 Lewis Hamilton ▼5
13
15
16
18 Lance Stroll ▲1
17
18
30 Liam Lawson ▲2
19
6 Isack Hadjar ▼3
Failing to follow Gara Directors Instructions · Changes made during Parc Ferme
20
10 Pierre Gasly ▼1
Changes made during Parc Ferme
Final grid as classificato, including any dalla pit lane partenze. Source: Jolpica-F1. The arrow compares the grid slot with the le qualifiche classification; hover a drop to see the stewards document behind it.
Nessun dato per questa sessione.
PosPilotaGiro miglioreDistaccoGiri
1 44 Lewis Hamilton 1:20.117 20
2 16 Charles Leclerc 1:20.286 +0.169 24
3 55 Carlos Sainz 1:20.650 +0.533 25
4 1 Max Verstappen 1:20.692 +0.575 22
5 12 Andrea Kimi Antonelli 1:20.940 +0.823 25
6 4 Lando Norris 1:21.021 +0.904 28
7 23 Alexander Albon 1:21.073 +0.956 25
8 63 George Russell 1:21.110 +0.993 20
9 14 Fernando Alonso 1:21.114 +0.997 20
10 6 Isack Hadjar 1:21.158 +1.041 25
11 5 Gabriel Bortoleto 1:21.172 +1.055 24
12 27 Nico Hülkenberg 1:21.179 +1.062 26
13 30 Liam Lawson 1:21.201 +1.084 27
14 22 Yuki Tsunoda 1:21.292 +1.175 24
15 18 Lance Stroll 1:21.295 +1.178 26
16 31 Esteban Ocon 1:21.642 +1.525 22
17 10 Pierre Gasly 1:21.653 +1.536 26
18 87 Oliver Bearman 1:22.058 +1.941 23
Classified by best lap · source OpenF1 (2023+)
PosPilotaGiro miglioreDistaccoGiri
1 4 Lando Norris 1:19.878 28
2 16 Charles Leclerc 1:19.961 +0.083 29
3 55 Carlos Sainz 1:19.974 +0.096 30
4 81 Oscar Piastri 1:20.059 +0.181 29
5 44 Lewis Hamilton 1:20.070 +0.192 26
6 1 Max Verstappen 1:20.077 +0.199 27
7 23 Alexander Albon 1:20.179 +0.301 28
8 27 Nico Hülkenberg 1:20.241 +0.363 27
9 22 Yuki Tsunoda 1:20.269 +0.391 28
10 63 George Russell 1:20.276 +0.398 29
11 6 Isack Hadjar 1:20.383 +0.505 24
12 5 Gabriel Bortoleto 1:20.475 +0.597 25
13 18 Lance Stroll 1:20.528 +0.650 28
14 87 Oliver Bearman 1:20.607 +0.729 29
15 14 Fernando Alonso 1:20.645 +0.767 26
16 31 Esteban Ocon 1:20.654 +0.776 29
17 30 Liam Lawson 1:20.811 +0.933 25
18 10 Pierre Gasly 1:21.102 +1.224 30
19 12 Andrea Kimi Antonelli 1:21.367 +1.489 4
20 43 Franco Colapinto 1:21.564 +1.686 30
Classified by best lap · source OpenF1 (2023+)
PosPilotaGiro miglioreDistaccoGiri
1 4 Lando Norris 1:19.331 21
2 16 Charles Leclerc 1:19.352 +0.021 24
3 81 Oscar Piastri 1:19.496 +0.165 22
4 1 Max Verstappen 1:19.498 +0.167 18
5 63 George Russell 1:19.515 +0.184 19
6 5 Gabriel Bortoleto 1:19.558 +0.227 18
7 44 Lewis Hamilton 1:19.598 +0.267 23
8 6 Isack Hadjar 1:19.603 +0.272 20
9 12 Andrea Kimi Antonelli 1:19.696 +0.365 24
10 23 Alexander Albon 1:19.720 +0.389 23
11 27 Nico Hülkenberg 1:19.737 +0.406 18
12 14 Fernando Alonso 1:19.861 +0.530 19
13 55 Carlos Sainz 1:19.907 +0.576 23
14 43 Franco Colapinto 1:20.034 +0.703 22
15 22 Yuki Tsunoda 1:20.059 +0.728 24
16 30 Liam Lawson 1:20.132 +0.801 14
17 87 Oliver Bearman 1:20.209 +0.878 22
18 18 Lance Stroll 1:20.247 +0.916 22
19 10 Pierre Gasly 1:20.247 +0.916 23
20 31 Esteban Ocon 1:20.304 +0.973 20
Classified by best lap · source OpenF1 (2023+)
#PilotaTempo sul giroGiro
1 4 Lando Norris 1:20.901 L53
2 1 Max Verstappen 1:21.003 L52
3 4 Lando Norris 1:21.038 L48
4 1 Max Verstappen 1:21.100 L53
5 4 Lando Norris 1:21.123 L50
6 4 Lando Norris 1:21.154 L49
7 81 Oscar Piastri 1:21.245 L47
8 4 Lando Norris 1:21.259 L52
9 1 Max Verstappen 1:21.289 L44
10 16 Charles Leclerc 1:21.294 L53
Top 10 più veloce race giri — #1 is the più veloce lap of la gara(FL).
Pit stop · a confronto
25s 30s 35s mediana 24.9s Oscar Piastri · L45 · 23.602s Lewis Hamilton · L38 · 23.971s Liam Lawson · L9 · 24.156s Charles Leclerc · L33 · 24.235s Isack Hadjar · L32 · 24.326s Yuki Tsunoda · L19 · 24.372s Max Verstappen · L37 · 24.545s Carlos Sainz · L30 · 24.605s Alexander Albon · L41 · 24.717s Andrea Kimi Antonelli · L28 · 24.916s Franco Colapinto · L33 · 24.971s Pierre Gasly · L49 · 25.012s George Russell · L27 · 25.021s Fernando Alonso · L20 · 25.160s Oliver Bearman · L18 · 25.372s Gabriel Bortoleto · L20 · 26.143s Lando Norris · L46 · 27.498s Esteban Ocon · L51 · 30.754s · penalità scontata Lance Stroll · L49 · 38.418s
più veloce 23.602s Oscar Piastri più lenta 38.418s Lance Stroll penalità scontata tempo di transito nella dalla pit lane — un punto per sosta
PilotaSostaGiroTempoTransito in dalla pit lane
30 Liam Lawson 1 9 15:16:28 24.156s
87 Oliver Bearman 1 18 15:29:07 25.372s
22 Yuki Tsunoda 1 19 15:30:30 24.372s
5 Gabriel Bortoleto 1 20 15:31:51 26.143s
14 Fernando Alonso 1 20 15:31:51 25.160s
63 George Russell 1 27 15:41:27 25.021s
12 Andrea Kimi Antonelli 1 28 15:43:02 24.916s
55 Carlos Sainz 1 30 15:45:54 24.605s
6 Isack Hadjar 1 32 15:48:45 24.326s
43 Franco Colapinto 1 33 15:50:20 24.971s
16 Charles Leclerc 1 33 15:49:40 24.235s
1 Max Verstappen 1 37 15:54:52 24.545s
44 Lewis Hamilton 1 38 15:56:43 23.971s
23 Alexander Albon 1 41 16:01:01 24.717s
81 Oscar Piastri 1 45 16:06:02 23.602s
4 Lando Norris 1 46 16:07:22 27.498s
18 Lance Stroll 1 49 16:12:23 38.418s
10 Pierre Gasly 1 49 16:12:32 25.012s
31 Esteban Ocon 1 51 16:15:06 30.754s
soste
SG 10 20 30 40 L53
1
1
M36
H17
4
1
M45
S8·+2
81
1
M44
S9·+3
16
1
M32
H21
63
1
M26
H27
44
1
M37
H16
23
1
H40
M13
5
1
M19
H34
12
1
M27
H26
6
1
H31·+1
M22
55
1
M29
H24
87
1
M17
H36
22
1
M18
H35
30
1
S8
H45
31
1
H50
H2
10
1
H48
S4
43
1
M32
H20
18
1
H48·+1
S4
14
1
M19·+1
H5·+1
27
0
M1
S Soft M Medium H Hard I Intermediate W Wet SC·VSC sosta ai box penalità scontata ai box
Gara · larghezza barra = giri su quel treno, ·+N = montato usato con N giri pregressi · fonte OpenF1 (2023+)
Mescole designate per questo Gran Premio
C3 Dura C4 Media C5 Morbida
Pirelli designa tre delle sue mescole slick per ogni evento; più alto è il numero C, più morbida è la gomma. Documento FIA ↗
Più posizioni guadagnate in pista
6
+15
P19→P10
23
+12
P14→P7
55
+11
P13→P11
12
+10
P6→P9
10
+10
P20→P16
18
+10
P16→P18
5
+9
P7→P8
87
+9
P11→P12
Più posizioni perse
Fernando Alonso −13 Lance Stroll −12 Gabriel Bortoleto −11
Gara · Somma delle posizioni guadagnate in pista giro per giro — esclusi il giro di partenza e i propri giri ai box. Dati dei giri di gara dal 1996.
PilotaTipoGiroScontataAssegnataMotivo
55 Carlos Sainz Reprimenda Car 55 did not use the escape road at Turn 4/5 after missing Turn 4. (Pilota: Reprimenda (Driving).) Doc 39 ↗
Car 55 did not use the escape road at Turn 4/5 after missing Turn 4. (Pilota: Reprimenda (Driving).) Doc 39 ↗
44 Lewis Hamilton Penalità in griglia ▼5 (P5 → P10)
▼5 (P5 → P10)
31 Esteban Ocon Time penalty 9 51 +5s · 1pt Car 31 forced Car 18 off the track on the approach to Turn 4. (5 second time penalty. 1 penalty point (total of 1 for the 12 month period).) Doc 38 ↗
Giro 9 · Scontata 51 · +5s · 1pt Car 31 forced Car 18 off the track on the approach to Turn 4. (5 second time penalty. 1 penalty point (total of 1 for the 12 month period).) Doc 38 ↗
87 Oliver Bearman Time penalty 46 A fine gara +10s · 2pt Car 87 collided with Car 55 at Turn 4 (10 second time penalty. 2 penalty points (total of 10 for the 12 month period).) Doc 43 ↗
Giro 46 · Scontata A fine gara · +10s · 2pt Car 87 collided with Car 55 at Turn 4 (10 second time penalty. 2 penalty points (total of 10 for the 12 month period).) Doc 43 ↗
12 Andrea Kimi Antonelli Time penalty 53 A fine gara +5s · 1pt Car 12 forced Car 23 onto the grass at high speed before Turn 3 (5 second time penalty. 1 penalty point (total of 5 for the 12 month period).) Doc 42 ↗
Giro 53 · Scontata A fine gara · +5s · 1pt Car 12 forced Car 23 onto the grass at high speed before Turn 3 (5 second time penalty. 1 penalty point (total of 5 for the 12 month period).) Doc 42 ↗
18 Lance Stroll Black-and-white flag warning Car 18 crossed back into the Pit Exit Road when exiting the pits during the reconnaissance giri (Pilota: Warning.) Doc 45 ↗
Car 18 crossed back into the Pit Exit Road when exiting the pits during the reconnaissance giri (Pilota: Warning.) Doc 45 ↗
14 Fernando Alonso Black-and-white flag warning Car 14 crossed back into the Pit Exit Road when exiting the pits during the reconnaissance giri (Pilota: Warning.) Doc 44 ↗
Car 14 crossed back into the Pit Exit Road when exiting the pits during the reconnaissance giri (Pilota: Warning.) Doc 44 ↗
12 Andrea Kimi Antonelli Black-and-white flag warning 30 TRACK LIMITS
Giro 30 TRACK LIMITS
10 Pierre Gasly Black-and-white flag warning 36 TRACK LIMITS
Giro 36 TRACK LIMITS
Giro = giro in cui è stata inflitta la penalità · Scontata = giro in cui è stata scontata ai box (vuoto: sommata al tempo di gara)
Time, drive-through and stop-go penalties come from race control messages (OpenF1, 2023+). Griglia penalties never appear there — the stewards publish them as documents after the session — so they are worked back from the starting grid against the le qualifiche classification, which gives places actually lost rather than the figure written in the decision.
PilotaTipoGiroScontataAssegnataMotivo
10 Pierre Gasly Pit lane start The team did not cover Car 10 two hours after the chequered flag of the le qualifiche session and the following Power Unit elements have been usati: 5th Internal Combustion Motore (ICE) 5th Turbo Charger (TC) 5th Motor Generator Unit - Heat (MGU-H) 5th Motor (Required to start the Gara from the dalla pit lane.) Doc 35 ↗
The team did not cover Car 10 two hours after the chequered flag of the le qualifiche session and the following Power Unit elements have been usati: 5th Internal Combustion Motore (ICE) 5th Turbo Charger (TC) 5th Motor Generator Unit - Heat (MGU-H) 5th Motor (Required to start the Gara from the dalla pit lane.) Doc 35 ↗
6 Isack Hadjar Pit lane start The following Power Unit elements have been usati: 5th Internal Combustion Motore (ICE) 5th Turbo Charger (TC) 5th Motor Generator Unit - Heat (MGU-H) 5th Motor Generator Unit - Kinetic (MGU-K) 3rd Energy Store (ES) 3rd Control Electronics (CE) 7th Motore (Required to start the Gara from the dalla pit lane.) Doc 34 ↗
The following Power Unit elements have been usati: 5th Internal Combustion Motore (ICE) 5th Turbo Charger (TC) 5th Motor Generator Unit - Heat (MGU-H) 5th Motor Generator Unit - Kinetic (MGU-K) 3rd Energy Store (ES) 3rd Control Electronics (CE) 7th Motore (Required to start the Gara from the dalla pit lane.) Doc 34 ↗
30 Liam Lawson Giri cancellati TRACK LIMITS (PIT)
TRACK LIMITS (PIT)
4 Lando Norris Giri cancellati TRACK LIMITS (PIT)
TRACK LIMITS (PIT)
Giro = giro in cui è stata inflitta la penalità · Scontata = giro in cui è stata scontata ai box (vuoto: sommata al tempo di gara)
Time, drive-through and stop-go penalties come from race control messages (OpenF1, 2023+). Griglia penalties never appear there — the stewards publish them as documents after the session — so they are worked back from the starting grid against the le qualifiche classification, which gives places actually lost rather than the figure written in the decision.
PilotaTipoGiroScontataAssegnataMotivo
6 Isack Hadjar Black-and-white flag warning Car 6 did not use the escape road at Turn 4/5 after missing Turn 4. (Pilota: Warning) Doc 22 ↗
Car 6 did not use the escape road at Turn 4/5 after missing Turn 4. (Pilota: Warning) Doc 22 ↗
Giro = giro in cui è stata inflitta la penalità · Scontata = giro in cui è stata scontata ai box (vuoto: sommata al tempo di gara)
Time, drive-through and stop-go penalties come from race control messages (OpenF1, 2023+). Griglia penalties never appear there — the stewards publish them as documents after the session — so they are worked back from the starting grid against the le qualifiche classification, which gives places actually lost rather than the figure written in the decision.
PilotaTipoGiroScontataAssegnataMotivo
81 Oscar Piastri Reprimenda Car 81 entered the fast lane during a bandiera rossa period before the re-start of the session was confirmed. (Competitor: Reprimenda.) Doc 16 ↗
Car 81 entered the fast lane during a bandiera rossa period before the re-start of the session was confirmed. (Competitor: Reprimenda.) Doc 16 ↗
5 Gabriel Bortoleto Altro sanction Car 5 overtook Car 30 in a yellow flag zone (No penalty applied.) Doc 15 ↗
Car 5 overtook Car 30 in a yellow flag zone (No penalty applied.) Doc 15 ↗
Giro = giro in cui è stata inflitta la penalità · Scontata = giro in cui è stata scontata ai box (vuoto: sommata al tempo di gara)
Time, drive-through and stop-go penalties come from race control messages (OpenF1, 2023+). Griglia penalties never appear there — the stewards publish them as documents after the session — so they are worked back from the starting grid against the le qualifiche classification, which gives places actually lost rather than the figure written in the decision.
PilotaTipoGiroScontataAssegnataMotivo
6 Isack Hadjar Black-and-white flag warning FAILING TO FOLLOW RACE DIRECTORS INSTRUCTIONS – ESCAPE ROAD INSTRUCTIONS
FAILING TO FOLLOW RACE DIRECTORS INSTRUCTIONS – ESCAPE ROAD INSTRUCTIONS
63 George Russell Black-and-white flag warning FAILING TO FOLLOW RACE DIRECTORS INSTRUCTIONS – ESCAPE ROAD INSTRUCTIONS
FAILING TO FOLLOW RACE DIRECTORS INSTRUCTIONS – ESCAPE ROAD INSTRUCTIONS
Giro = giro in cui è stata inflitta la penalità · Scontata = giro in cui è stata scontata ai box (vuoto: sommata al tempo di gara)
Time, drive-through and stop-go penalties come from race control messages (OpenF1, 2023+). Griglia penalties never appear there — the stewards publish them as documents after the session — so they are worked back from the starting grid against the le qualifiche classification, which gives places actually lost rather than the figure written in the decision.
DocTitoloOggettoPublished(CET)
1 Event Notes - Pirelli Preview ↗ 2025-09-03 10:21
2025-09-03 10:21 CET
2 Post-Gara Checks on Car Numbers 06 and 30, 2025 Dutch GP ↗ 2025-09-04 14:15
2025-09-04 14:15 CET
3 Car Display Procedure ↗ 2025-09-04 18:00
2025-09-04 18:00 CET
4 Gara Director's Event Notes ↗ 2025-09-04 18:41
2025-09-04 18:41 CET
5 Event Notes - Circuito Map, Pit Lane, Emergency Exit Map, Quarantine Zone and Red Zones ↗ 2025-09-04 18:54
2025-09-04 18:54 CET
6 PU elements usati per driver up to now ↗ 2025-09-05 09:35
2025-09-05 09:35 CET
7 Self Scrutineering ↗ 2025-09-05 09:36
2025-09-05 09:36 CET
8 Car Presentation Submissions ↗ 2025-09-05 11:00
2025-09-05 11:00 CET
9 Entry List ↗ 2025-09-05 11:33
2025-09-05 11:33 CET
10 New PU elements for this Competition ↗ 2025-09-05 13:49
2025-09-05 13:49 CET
11 P1 Classification ↗ 2025-09-05 15:06
2025-09-05 15:06 CET
12 Summons - Car 81 - Alleged Failure to follow Gara Director's Instructions ↗ 81 Oscar Piastri 2025-09-05 17:50
81 Oscar Piastri 2025-09-05 17:50 CET
13 P2 Classification ↗ 2025-09-05 18:19
2025-09-05 18:19 CET
14 Gara Director Notes - SC2 - SC1 Times ↗ 2025-09-05 18:30
2025-09-05 18:30 CET
15 Decision - Car 5 overtook Car 30 in a yellow flag zone ↗ 5 Gabriel Bortoleto 2025-09-05 18:40
5 Gabriel Bortoleto 2025-09-05 18:40 CET
16 Decision - Car 81 - Failure to follow Gara Directors instructions - Fast Lane ↗ 81 Oscar Piastri 2025-09-05 18:53
81 Oscar Piastri 2025-09-05 18:53 CET
17 P1 and P2 Scrutineering ↗ 2025-09-05 19:22
2025-09-05 19:22 CET
18 Event Notes - Pirelli Preview ↗ 2025-09-06 07:58
2025-09-06 07:58 CET
19 Post-Qualifiche Procedure ↗ 2025-09-06 10:16
2025-09-06 10:16 CET
20 Summons - Car 6 - Alleged Failure to follow Gara Director's Instructions ↗ 6 Isack Hadjar 2025-09-06 13:21
6 Isack Hadjar 2025-09-06 13:21 CET
21 P3 Classification ↗ 2025-09-06 13:46
2025-09-06 13:46 CET
22 Infringement - Car 6 - Failing to follow Gara Directors Instructions ↗ 6 Isack Hadjar 2025-09-06 15:19
6 Isack Hadjar 2025-09-06 15:19 CET
23 Provisional Qualifiche Classification ↗ 2025-09-06 17:21
2025-09-06 17:21 CET
24 Qualifiche Deleted Giro Times ↗ 2025-09-06 17:59
2025-09-06 17:59 CET
25 Qualifiche SC2-SC1 Times ↗ 2025-09-06 18:00
2025-09-06 18:00 CET
26 P3 and Qualifiche Scrutineering ↗ 2025-09-06 19:27
2025-09-06 19:27 CET
28 Parc Fermé Issues ↗ 2025-09-06 19:53
2025-09-06 19:53 CET
29 Final Qualifiche Classification ↗ 2025-09-06 19:54
2025-09-06 19:54 CET
30 Provisional Starting Griglia ↗ 2025-09-06 20:01
2025-09-06 20:01 CET
31 Post-Gara Procedure ↗ 2025-09-07 11:22
2025-09-07 11:22 CET
32 Pre-Gara Procedure ↗ 2025-09-07 11:24
2025-09-07 11:24 CET
33 Parc Fermé Issues, Part 2 ↗ 2025-09-07 11:55
2025-09-07 11:55 CET
34 Infringement - Car 6 - Changes made during Parc Ferme ↗ 6 Isack Hadjar 2025-09-07 13:23
6 Isack Hadjar 2025-09-07 13:23 CET
35 Infringement - Car 10 - Changes made during Parc Ferme ↗ 10 Pierre Gasly 2025-09-07 13:24
10 Pierre Gasly 2025-09-07 13:24 CET
36 Parts and parameters been replaced and or changed during Parc Fermé ↗ 2025-09-07 13:57
2025-09-07 13:57 CET
37 Final Starting Griglia ↗ 2025-09-07 14:00
2025-09-07 14:00 CET
38 Infringement - Car 31 - Forcing another driver off the track ↗ 31 Esteban Ocon 2025-09-07 16:00
31 Esteban Ocon 2025-09-07 16:00 CET
39 Infringement - Car 55 - Failure to follow Gara Director's Instructions ↗ 55 Carlos Sainz 2025-09-07 16:38
55 Carlos Sainz 2025-09-07 16:38 CET
40 Provisional Gara Classification ↗ 2025-09-07 16:40
2025-09-07 16:40 CET
41 Infringement - Gara Deleted Giro Times ↗ 2025-09-07 17:05
2025-09-07 17:05 CET
42 Infringement - Car 12 - Erratic Driving ↗ 12 Andrea Kimi Antonelli 2025-09-07 17:21
12 Andrea Kimi Antonelli 2025-09-07 17:21 CET
43 Infringement - Car 87 - Causing a Collision ↗ 87 Oliver Bearman 2025-09-07 17:24
87 Oliver Bearman 2025-09-07 17:24 CET
44 Infringement - Car 14 - Failing to Follow Gara Directors Instructions ↗ 14 Fernando Alonso 2025-09-07 17:55
14 Fernando Alonso 2025-09-07 17:55 CET
45 Infringement - Car 18 - Failing to Follow Gara Directors Instructions ↗ 18 Lance Stroll 2025-09-07 17:55
18 Lance Stroll 2025-09-07 17:55 CET
46 Gara Scrutineering ↗ 2025-09-07 18:32
2025-09-07 18:32 CET
47 Final Gara Classification ↗ 2025-09-07 18:40
2025-09-07 18:40 CET
48 Campionato Punti ↗ 2025-09-07 19:09
2025-09-07 19:09 CET
FIA official decisions and documents (fia.com) · PDF original PDF links
Record Basis · Calculation basis
Gara order is the final classification(post-race penalties applied) · le qualifiche session data 2003+ · lap times 1996+ · pit stops 2012+ (pit-lane transit, not stationary time) · Ritiro = Finished(Finished·+N Giri) non-Finished statuses
Fonti dei dati: Jolpica-F1 (Ergast compatible API) · weather·Direzione gara OpenF1 (2023+) · Last fetched: 2026-09-05 23:09